ROLR17 YMES-YMES

Flight info

Callsign ROLR17
Flight time 1h 16m
Altitude 1000
Route CCT
Aircraft PC21/M-S/LB1

Departure

Time 2026-05-06 08:25
Airport RAAF Base East Sale (YMES)

Arrival

Time 2026-05-06 09:41
Airport RAAF Base East Sale (YMES)
Time Latitude Longitude Altitude Speed Heading
2026-05-06 08:06 -38.09903 147.13612 29 ft 0 kts 188°
2026-05-06 08:19 -38.09923 147.13613 27 ft 3 kts 133°
2026-05-06 08:19 -38.09930 147.13658 26 ft 7 kts 99°
2026-05-06 08:19 -38.09938 147.13720 26 ft 7 kts 99°
2026-05-06 08:20 -38.09946 147.13789 26 ft 8 kts 98°
2026-05-06 08:20 -38.09956 147.13872 26 ft 10 kts 98°
2026-05-06 08:20 -38.09933 147.13894 29 ft 6 kts
2026-05-06 08:20 -38.09916 147.13949 28 ft 10 kts 99°
2026-05-06 08:21 -38.09909 147.14031 28 ft 8 kts 16°
2026-05-06 08:21 -38.09850 147.14064 28 ft 7 kts 96°
2026-05-06 08:21 -38.09864 147.14178 25 ft 15 kts 99°
2026-05-06 08:21 -38.09880 147.14318 23 ft 16 kts 100°
2026-05-06 08:22 -38.09898 147.14456 24 ft 16 kts 99°
2026-05-06 08:22 -38.09917 147.14601 21 ft 18 kts 99°
2026-05-06 08:22 -38.09935 147.14759 18 ft 18 kts 97°
2026-05-06 08:22 -38.09954 147.14912 20 ft 17 kts 96°
2026-05-06 08:23 -38.09972 147.15050 23 ft 15 kts 103°
2026-05-06 08:23 -38.09988 147.15176 25 ft 13 kts 99°
2026-05-06 08:23 -38.09992 147.15253 26 ft 14 kts 65°
2026-05-06 08:23 -38.09972 147.15291 25 ft 0 kts 46°
2026-05-06 08:24 -38.09967 147.15297 27 ft 8 kts 41°
2026-05-06 08:24 -38.09898 147.15324 26 ft 11 kts 346°
2026-05-06 08:24 -38.09869 147.15267 23 ft 0 kts 278°
2026-05-06 08:25 -38.09853 147.15137 23 ft 54 kts 279°
2026-05-06 08:25 -38.09760 147.14320 153 ft 118 kts 282°
2026-05-06 08:25 -38.09609 147.13100 746 ft 160 kts 282°
2026-05-06 08:25 -38.09261 147.11752 1057 ft 165 kts 319°
2026-05-06 08:26 -38.08146 147.11687 1040 ft 192 kts 28°
2026-05-06 08:26 -38.07582 147.13253 902 ft 217 kts 92°
2026-05-06 08:26 -38.07813 147.15152 847 ft 212 kts 96°
2026-05-06 08:26 -38.08058 147.16980 856 ft 210 kts 97°
2026-05-06 08:27 -38.08499 147.18530 1097 ft 171 kts 140°
2026-05-06 08:27 -38.09502 147.18629 889 ft 141 kts 215°
2026-05-06 08:27 -38.10074 147.17740 620 ft 127 kts 261°
2026-05-06 08:27 -38.10054 147.16641 333 ft 126 kts 284°
2026-05-06 08:28 -38.09906 147.15574 103 ft 118 kts 281°
2026-05-06 08:28 -38.09790 147.14600 21 ft 99 kts 280°
2026-05-06 08:28 -38.09685 147.13686 325 ft 114 kts 282°
2026-05-06 08:28 -38.09549 147.12507 904 ft 150 kts 282°
2026-05-06 08:29 -38.09103 147.11340 1127 ft 159 kts 327°
2026-05-06 08:29 -38.07937 147.11308 987 ft 193 kts 20°
2026-05-06 08:29 -38.07489 147.12880 851 ft 213 kts 96°
2026-05-06 08:29 -38.07754 147.14716 780 ft 210 kts 97°
2026-05-06 08:30 -38.07998 147.16513 944 ft 204 kts 96°
2026-05-06 08:30 -38.08300 147.18260 982 ft 206 kts 117°
2026-05-06 08:30 -38.09400 147.18747 926 ft 158 kts 202°
2026-05-06 08:30 -38.10096 147.17907 670 ft 133 kts 258°
2026-05-06 08:31 -38.10077 147.16806 347 ft 118 kts 284°
2026-05-06 08:31 -38.09938 147.15801 144 ft 114 kts 282°
2026-05-06 08:31 -38.09815 147.14814 20 ft 104 kts 283°
2026-05-06 08:31 -38.09714 147.13958 143 ft 107 kts 283°
2026-05-06 08:32 -38.09587 147.12873 694 ft 145 kts 283°
2026-05-06 08:32 -38.09336 147.11564 1154 ft 150 kts 307°
2026-05-06 08:32 -38.08354 147.11264 973 ft 176 kts 17°
2026-05-06 08:32 -38.07535 147.12506 857 ft 205 kts 81°
2026-05-06 08:33 -38.07692 147.14376 782 ft 217 kts 96°
2026-05-06 08:33 -38.07950 147.16255 790 ft 214 kts 98°
2026-05-06 08:33 -38.08241 147.18055 766 ft 201 kts 98°
2026-05-06 08:33 -38.08530 147.19747 831 ft 195 kts 99°
2026-05-06 08:34 -38.08833 147.21395 933 ft 192 kts 99°
2026-05-06 08:34 -38.10613 147.21450 1033 ft 213 kts 275°
2026-05-06 08:34 -38.10448 147.19540 626 ft 225 kts 281°
2026-05-06 08:35 -38.10222 147.17489 465 ft 245 kts 280°
2026-05-06 08:35 -38.09977 147.15256 471 ft 264 kts 280°
2026-05-06 08:35 -38.09369 147.13405 992 ft 197 kts 357°
2026-05-06 08:35 -38.08891 147.14464 935 ft 149 kts 91°
2026-05-06 08:36 -38.09053 147.15724 843 ft 139 kts 93°
2026-05-06 08:36 -38.09232 147.17018 757 ft 155 kts 97°
2026-05-06 08:36 -38.09922 147.17682 584 ft 135 kts 214°
2026-05-06 08:36 -38.10056 147.16658 288 ft 130 kts 285°
2026-05-06 08:37 -38.09906 147.15546 99 ft 128 kts 283°
2026-05-06 08:37 -38.09774 147.14497 22 ft 104 kts 278°
2026-05-06 08:37 -38.09658 147.13491 299 ft 133 kts 282°
2026-05-06 08:37 -38.09482 147.12187 910 ft 154 kts 283°
2026-05-06 08:38 -38.08865 147.11148 1019 ft 168 kts 349°
2026-05-06 08:38 -38.07739 147.11828 941 ft 208 kts 51°
2026-05-06 08:38 -38.07609 147.13608 842 ft 207 kts 97°
2026-05-06 08:38 -38.07861 147.15415 830 ft 214 kts 97°
2026-05-06 08:39 -38.08109 147.17274 916 ft 212 kts 96°
2026-05-06 08:39 -38.08861 147.18501 1042 ft 165 kts 178°
2026-05-06 08:39 -38.09799 147.18058 791 ft 135 kts 232°
2026-05-06 08:39 -38.10076 147.17013 426 ft 125 kts 278°
2026-05-06 08:40 -38.09955 147.15954 177 ft 121 kts 282°
2026-05-06 08:40 -38.09832 147.14952 23 ft 101 kts 284°
2026-05-06 08:40 -38.09738 147.14208 24 ft 89 kts 278°
2026-05-06 08:40 -38.09669 147.13621 231 ft 111 kts 282°
2026-05-06 08:41 -38.09514 147.12182 848 ft 132 kts 282°
2026-05-06 08:41 -38.09228 147.11012 1102 ft 149 kts 316°
2026-05-06 08:41 -38.08574 147.10722 1171 ft 168 kts
2026-05-06 08:41 -38.07574 147.11686 1125 ft 203 kts 65°
2026-05-06 08:42 -38.07633 147.13500 1096 ft 208 kts 96°
2026-05-06 08:42 -38.07895 147.15389 1295 ft 230 kts 96°
2026-05-06 08:42 -38.08186 147.17408 2260 ft 240 kts 97°
2026-05-06 08:42 -38.08492 147.19592 2488 ft 258 kts 98°
2026-05-06 08:43 -38.08850 147.21869 2599 ft 267 kts 100°
2026-05-06 08:43 -38.09245 147.24180 2723 ft 267 kts 98°
2026-05-06 08:43 -38.09318 147.26504 3029 ft 261 kts 81°
2026-05-06 08:43 -38.08906 147.28718 3176 ft 254 kts 64°
2026-05-06 08:44 -38.08023 147.30616 3344 ft 246 kts 45°
2026-05-06 08:44 -38.06719 147.32066 3507 ft 256 kts 28°
2026-05-06 08:44 -38.05133 147.33211 3576 ft 270 kts 24°
2026-05-06 08:44 -38.03452 147.34366 3685 ft 279 kts 23°
2026-05-06 08:45 -38.01717 147.35561 3808 ft 286 kts 24°
2026-05-06 08:45 -38.00044 147.36862 4356 ft 277 kts 30°
2026-05-06 08:45 -37.98438 147.38289 4445 ft 288 kts 30°
2026-05-06 08:45 -37.96899 147.39946 4508 ft 298 kts 50°
2026-05-06 08:46 -37.96252 147.42464 4420 ft 313 kts 91°
2026-05-06 08:46 -37.97176 147.44846 4472 ft 306 kts 147°
2026-05-06 08:46 -37.99025 147.44861 3509 ft 282 kts 243°
2026-05-06 08:46 -37.98009 147.43086 2270 ft 280 kts 350°
2026-05-06 08:47 -37.96157 147.43431 2947 ft 262 kts 351°
2026-05-06 08:47 -37.94710 147.42216 3475 ft 263 kts 298°
2026-05-06 08:47 -37.94833 147.40083 3643 ft 278 kts 231°
2026-05-06 08:47 -37.96744 147.39711 3367 ft 324 kts 153°
2026-05-06 08:48 -37.97706 147.42103 3451 ft 311 kts 78°
2026-05-06 08:48 -37.96405 147.43969 3739 ft 287 kts
2026-05-06 08:48 -37.94754 147.43046 3789 ft 280 kts 295°
2026-05-06 08:48 -37.95159 147.40690 3409 ft 299 kts 226°
2026-05-06 08:49 -37.97077 147.39694 2352 ft 314 kts 195°
2026-05-06 08:49 -37.99298 147.39189 1658 ft 323 kts 193°
2026-05-06 08:49 -38.01474 147.38777 1892 ft 304 kts 185°
2026-05-06 08:49 -38.03390 147.39486 2042 ft 292 kts 144°
2026-05-06 08:50 -38.04798 147.41322 1865 ft 291 kts 130°
2026-05-06 08:50 -38.06365 147.42880 1830 ft 286 kts 168°
2026-05-06 08:50 -38.07816 147.41725 1303 ft 282 kts 271°
2026-05-06 08:50 -38.06385 147.40274 754 ft 302 kts 351°
2026-05-06 08:51 -38.04309 147.39858 926 ft 298 kts 349°
2026-05-06 08:51 -38.02338 147.39485 1123 ft 281 kts 349°
2026-05-06 08:51 -38.00410 147.39101 1075 ft 283 kts 349°
2026-05-06 08:51 -37.98468 147.38758 1172 ft 277 kts 353°
2026-05-06 08:52 -37.96634 147.38153 1481 ft 278 kts 318°
2026-05-06 08:52 -37.96790 147.36052 1442 ft 283 kts 214°
2026-05-06 08:52 -37.98719 147.35746 1246 ft 286 kts 180°
2026-05-06 08:52 -38.00708 147.35846 1196 ft 287 kts 180°
2026-05-06 08:53 -38.02699 147.35866 1131 ft 285 kts 183°
2026-05-06 08:53 -38.04681 147.35797 1088 ft 284 kts 185°
2026-05-06 08:53 -38.06626 147.35748 1510 ft 269 kts 175°
2026-05-06 08:53 -38.07897 147.37116 2100 ft 262 kts 88°
2026-05-06 08:54 -38.06671 147.38513 1556 ft 276 kts 353°
2026-05-06 08:54 -38.04742 147.37835 1169 ft 298 kts 349°
2026-05-06 08:54 -38.02660 147.38083 817 ft 304 kts
2026-05-06 08:54 -38.00598 147.38620 553 ft 299 kts 11°
2026-05-06 08:55 -37.98700 147.39135 1497 ft 152 kts
2026-05-06 08:55 -37.98689 147.39447 4597 ft 98 kts 98°
2026-05-06 08:55 -37.98663 147.38801 585 ft 292 kts 276°
2026-05-06 08:55 -38.00005 147.38794 1005 ft 275 kts 121°
2026-05-06 08:56 -38.01571 147.40125 785 ft 295 kts 167°
2026-05-06 08:56 -38.03691 147.40358 497 ft 321 kts 178°
2026-05-06 08:56 -38.05874 147.40249 857 ft 312 kts 187°
2026-05-06 08:56 -38.08062 147.40003 969 ft 321 kts 188°
2026-05-06 08:57 -38.09806 147.38687 944 ft 300 kts 272°
2026-05-06 08:57 -38.08171 147.37830 881 ft 292 kts
2026-05-06 08:57 -38.06155 147.37971 882 ft 285 kts 359°
2026-05-06 08:57 -38.04176 147.37966 788 ft 289 kts
2026-05-06 08:58 -38.02164 147.38230 571 ft 292 kts
2026-05-06 08:58 -38.00160 147.38579 525 ft 290 kts
2026-05-06 08:58 -37.98612 147.38779 2852 ft 70 kts 355°
2026-05-06 08:58 -37.98568 147.39166 1201 ft 220 kts 256°
2026-05-06 08:59 -37.99585 147.38413 1363 ft 251 kts 111°
2026-05-06 08:59 -38.01062 147.39545 975 ft 299 kts 188°
2026-05-06 08:59 -38.03190 147.39511 1201 ft 313 kts 167°
2026-05-06 08:59 -38.05343 147.40186 1223 ft 324 kts 185°
2026-05-06 09:00 -38.06695 147.38550 1223 ft 278 kts 284°
2026-05-06 09:00 -38.05110 147.37694 785 ft 293 kts 12°
2026-05-06 09:00 -38.03114 147.38225 684 ft 294 kts
2026-05-06 09:00 -38.01091 147.38703 510 ft 297 kts
2026-05-06 09:01 -37.99095 147.39167 686 ft 264 kts
2026-05-06 09:01 -37.98607 147.39571 3954 ft 125 kts 75°
2026-05-06 09:01 -37.98940 147.38583 531 ft 281 kts 231°
2026-05-06 09:01 -38.00495 147.38928 1912 ft 238 kts 141°
2026-05-06 09:02 -38.01868 147.40588 1248 ft 306 kts 135°
2026-05-06 09:02 -38.03590 147.42105 1032 ft 306 kts 155°
2026-05-06 09:02 -38.05622 147.43100 1128 ft 321 kts 161°
2026-05-06 09:02 -38.07823 147.43607 1195 ft 327 kts 192°
2026-05-06 09:03 -38.09111 147.41679 1129 ft 307 kts 281°
2026-05-06 09:03 -38.07675 147.40000 736 ft 298 kts 345°
2026-05-06 09:03 -38.05649 147.39674 871 ft 285 kts 349°
2026-05-06 09:03 -38.03998 147.38521 1222 ft 279 kts 307°
2026-05-06 09:04 -38.03779 147.36202 1539 ft 274 kts 250°
2026-05-06 09:04 -38.05281 147.34849 1417 ft 286 kts 188°
2026-05-06 09:04 -38.07052 147.35800 1324 ft 289 kts 125°
2026-05-06 09:04 -38.06723 147.37942 1262 ft 280 kts 24°
2026-05-06 09:05 -38.04764 147.37899 862 ft 298 kts 354°
2026-05-06 09:05 -38.02696 147.38006 618 ft 297 kts
2026-05-06 09:05 -38.00679 147.38218 529 ft 291 kts
2026-05-06 09:05 -37.99758 147.38787 3003 ft 126 kts 88°
2026-05-06 09:06 -37.99801 147.37374 590 ft 254 kts 245°
2026-05-06 09:06 -38.01435 147.36952 1512 ft 250 kts 162°
2026-05-06 09:06 -38.02554 147.38501 1491 ft 267 kts 117°
2026-05-06 09:06 -38.03714 147.40494 1762 ft 298 kts 136°
2026-05-06 09:07 -38.05538 147.41899 1911 ft 315 kts 167°
2026-05-06 09:07 -38.07404 147.41063 1972 ft 297 kts 250°
2026-05-06 09:07 -38.06937 147.38768 1875 ft 296 kts 323°
2026-05-06 09:07 -38.04904 147.38071 1441 ft 317 kts 358°
2026-05-06 09:08 -38.02742 147.38338 959 ft 311 kts
2026-05-06 09:08 -38.00581 147.38733 462 ft 313 kts
2026-05-06 09:08 -37.98660 147.39079 1796 ft 102 kts 351°
2026-05-06 09:08 -37.98889 147.39530 2018 ft 127 kts 274°
2026-05-06 09:09 -37.99497 147.38093 1023 ft 247 kts 157°
2026-05-06 09:09 -38.00553 147.39745 1840 ft 262 kts 170°
2026-05-06 09:09 -38.02520 147.39517 1469 ft 307 kts 180°
2026-05-06 09:09 -38.04696 147.40176 1232 ft 336 kts 160°
2026-05-06 09:10 -38.06898 147.40278 1316 ft 326 kts 223°
2026-05-06 09:10 -38.06839 147.37877 682 ft 303 kts 324°
2026-05-06 09:10 -38.04849 147.37615 530 ft 300 kts 11°
2026-05-06 09:10 -38.02845 147.38221 510 ft 291 kts 14°
2026-05-06 09:11 -38.00869 147.38697 461 ft 288 kts
2026-05-06 09:11 -37.98920 147.39061 797 ft 222 kts
2026-05-06 09:11 -37.98738 147.39652 2361 ft 37 kts 262°
2026-05-06 09:11 -37.99221 147.38146 1066 ft 227 kts 197°
2026-05-06 09:12 -38.00823 147.38937 1222 ft 285 kts 176°
2026-05-06 09:12 -38.02802 147.38338 1169 ft 304 kts 202°
2026-05-06 09:12 -38.04738 147.37563 1724 ft 266 kts 202°
2026-05-06 09:12 -38.06446 147.36922 2384 ft 250 kts 201°
2026-05-06 09:13 -38.08179 147.36631 2686 ft 258 kts 176°
2026-05-06 09:13 -38.09953 147.36541 2564 ft 267 kts 221°
2026-05-06 09:13 -38.10069 147.34481 2175 ft 280 kts 320°
2026-05-06 09:13 -38.08286 147.34853 1584 ft 302 kts 45°
2026-05-06 09:14 -38.06869 147.36804 1501 ft 299 kts 28°
2026-05-06 09:14 -38.04956 147.37695 1431 ft 294 kts
2026-05-06 09:14 -38.02912 147.38171 891 ft 303 kts
2026-05-06 09:14 -38.00802 147.38619 455 ft 306 kts
2026-05-06 09:15 -37.98782 147.39000 1000 ft 199 kts
2026-05-06 09:15 -37.98696 147.39568 2508 ft 39 kts 269°
2026-05-06 09:15 -37.99379 147.38226 645 ft 277 kts 159°
2026-05-06 09:15 -38.00595 147.39594 1752 ft 238 kts 206°
2026-05-06 09:16 -38.02188 147.38532 1620 ft 287 kts 209°
2026-05-06 09:16 -38.04146 147.37646 1680 ft 313 kts 182°
2026-05-06 09:16 -38.05831 147.39188 1933 ft 319 kts 105°
2026-05-06 09:16 -38.05599 147.41822 1582 ft 295 kts 59°
2026-05-06 09:17 -38.04220 147.43782 1213 ft 304 kts 27°
2026-05-06 09:17 -38.02199 147.44284 1074 ft 299 kts 348°
2026-05-06 09:17 -38.00429 147.43027 877 ft 298 kts 309°
2026-05-06 09:17 -37.99720 147.40615 588 ft 292 kts 285°
2026-05-06 09:18 -37.99381 147.38117 829 ft 280 kts 281°
2026-05-06 09:18 -37.99134 147.35792 1110 ft 259 kts 281°
2026-05-06 09:18 -37.98536 147.33535 1062 ft 281 kts 307°
2026-05-06 09:18 -37.97426 147.31498 1237 ft 278 kts 292°
2026-05-06 09:19 -37.97831 147.29292 1371 ft 291 kts 216°
2026-05-06 09:19 -37.99259 147.30342 1166 ft 286 kts 99°
2026-05-06 09:19 -37.99489 147.32918 691 ft 297 kts 96°
2026-05-06 09:19 -37.99792 147.35486 585 ft 293 kts 99°
2026-05-06 09:20 -38.00180 147.37949 778 ft 277 kts 99°
2026-05-06 09:20 -38.00610 147.40309 762 ft 287 kts 101°
2026-05-06 09:20 -38.01018 147.42798 721 ft 289 kts 99°
2026-05-06 09:20 -38.01453 147.45239 690 ft 282 kts 103°
2026-05-06 09:21 -38.02284 147.47489 694 ft 282 kts 122°
2026-05-06 09:21 -38.02948 147.49746 1021 ft 269 kts 62°
2026-05-06 09:21 -38.01425 147.49929 1091 ft 273 kts 309°
2026-05-06 09:21 -38.00937 147.47489 912 ft 301 kts 279°
2026-05-06 09:22 -38.00695 147.44979 1036 ft 277 kts 278°
2026-05-06 09:22 -38.00490 147.42519 906 ft 283 kts 279°
2026-05-06 09:22 -38.00232 147.40069 907 ft 280 kts 279°
2026-05-06 09:22 -37.99903 147.37706 1269 ft 263 kts 285°
2026-05-06 09:23 -37.99411 147.35487 1281 ft 273 kts 289°
2026-05-06 09:23 -37.98685 147.33236 1411 ft 277 kts 296°
2026-05-06 09:23 -37.97887 147.31075 1868 ft 261 kts 297°
2026-05-06 09:23 -37.97647 147.28912 2033 ft 275 kts 243°
2026-05-06 09:24 -37.99005 147.29594 1503 ft 306 kts 94°
2026-05-06 09:24 -37.99239 147.32253 838 ft 309 kts 98°
2026-05-06 09:24 -37.99613 147.34940 451 ft 306 kts 98°
2026-05-06 09:24 -37.99968 147.37575 579 ft 298 kts 98°
2026-05-06 09:25 -38.00327 147.40014 841 ft 270 kts 99°
2026-05-06 09:25 -38.00443 147.42354 1228 ft 273 kts 66°
2026-05-06 09:25 -37.98938 147.43555 1274 ft 277 kts 353°
2026-05-06 09:25 -37.97496 147.42103 1273 ft 294 kts 290°
2026-05-06 09:26 -37.97902 147.39743 1126 ft 287 kts 228°
2026-05-06 09:26 -37.99773 147.39001 730 ft 288 kts 140°
2026-05-06 09:26 -38.00212 147.41354 1125 ft 214 kts 97°
2026-05-06 09:26 -38.00251 147.41024 2231 ft 125 kts 277°
2026-05-06 09:27 -38.00026 147.38868 476 ft 279 kts 292°
2026-05-06 09:27 -37.98948 147.39538 577 ft 283 kts 105°
2026-05-06 09:27 -38.00044 147.39129 531 ft 279 kts 277°
2026-05-06 09:27 -37.99653 147.37851 1463 ft 245 kts 336°
2026-05-06 09:28 -37.98907 147.39571 1526 ft 292 kts 94°
2026-05-06 09:28 -37.98427 147.41849 2033 ft 280 kts 27°
2026-05-06 09:28 -37.96601 147.41931 2031 ft 279 kts 321°
2026-05-06 09:28 -37.96901 147.39782 1770 ft 320 kts 216°
2026-05-06 09:29 -37.99065 147.39023 650 ft 304 kts 193°
2026-05-06 09:29 -37.99982 147.40544 592 ft 285 kts 90°
2026-05-06 09:29 -38.00074 147.40883 2936 ft 105 kts 272°
2026-05-06 09:29 -38.00064 147.39003 405 ft 279 kts 274°
2026-05-06 09:30 -37.98969 147.38982 423 ft 273 kts 82°
2026-05-06 09:30 -38.00024 147.39389 405 ft 271 kts 267°
2026-05-06 09:30 -38.00339 147.37585 1512 ft 246 kts 177°
2026-05-06 09:30 -38.01062 147.39557 1411 ft 292 kts 101°
2026-05-06 09:31 -38.01720 147.42165 1152 ft 326 kts 115°
2026-05-06 09:31 -38.02915 147.44686 1138 ft 339 kts 125°
2026-05-06 09:31 -38.04404 147.47047 1147 ft 348 kts 134°
2026-05-06 09:31 -38.06536 147.48329 1121 ft 345 kts 183°
2026-05-06 09:32 -38.07888 147.46372 835 ft 306 kts 281°
2026-05-06 09:32 -38.07255 147.43886 945 ft 282 kts 292°
2026-05-06 09:32 -38.06652 147.41576 1116 ft 270 kts 291°
2026-05-06 09:32 -38.05992 147.39352 916 ft 282 kts 295°
2026-05-06 09:33 -38.04509 147.37859 796 ft 284 kts 354°
2026-05-06 09:33 -38.02549 147.38190 657 ft 288 kts 10°
2026-05-06 09:33 -38.00551 147.38696 328 ft 297 kts 11°
2026-05-06 09:33 -37.98683 147.39124 1353 ft 107 kts 355°
2026-05-06 09:34 -37.98747 147.39572 1416 ft 149 kts 272°
2026-05-06 09:34 -37.99430 147.37841 1308 ft 240 kts 208°
2026-05-06 09:34 -38.00689 147.39199 1137 ft 300 kts 138°
2026-05-06 09:34 -38.02695 147.40230 856 ft 326 kts 171°
2026-05-06 09:35 -38.04949 147.40531 1283 ft 317 kts 188°
2026-05-06 09:35 -38.06090 147.38841 1551 ft 288 kts 295°
2026-05-06 09:35 -38.04379 147.37931 1422 ft 290 kts
2026-05-06 09:35 -38.02364 147.38372 1009 ft 306 kts
2026-05-06 09:36 -38.00214 147.38855 455 ft 318 kts
2026-05-06 09:36 -37.98767 147.39173 3268 ft 33 kts 84°
2026-05-06 09:36 -37.98801 147.39287 1482 ft 226 kts 280°
2026-05-06 09:36 -38.00214 147.38380 1845 ft 282 kts 133°
2026-05-06 09:37 -38.01605 147.40278 1500 ft 318 kts 153°
2026-05-06 09:37 -38.03636 147.39882 1125 ft 316 kts 244°
2026-05-06 09:37 -38.04190 147.37244 1232 ft 308 kts 262°
2026-05-06 09:37 -38.04516 147.34557 1290 ft 310 kts 264°
2026-05-06 09:38 -38.04822 147.31870 1410 ft 306 kts 263°
2026-05-06 09:38 -38.05839 147.29504 1410 ft 323 kts 232°
2026-05-06 09:38 -38.07296 147.27373 1422 ft 313 kts 233°
2026-05-06 09:38 -38.08676 147.25293 1449 ft 306 kts 234°
2026-05-06 09:39 -38.10002 147.23182 1251 ft 304 kts 241°
2026-05-06 09:39 -38.10486 147.20652 939 ft 297 kts 275°
2026-05-06 09:39 -38.10245 147.18111 736 ft 278 kts 279°
2026-05-06 09:39 -38.10003 147.15796 406 ft 259 kts 279°
2026-05-06 09:40 -38.09584 147.13644 781 ft 240 kts 330°
2026-05-06 09:40 -38.08785 147.14874 898 ft 237 kts 97°
2026-05-06 09:40 -38.09721 147.17493 626 ft 153 kts 201°
2026-05-06 09:41 -38.10012 147.16428 249 ft 135 kts 283°
2026-05-06 09:41 -38.09860 147.15272 42 ft 129 kts 281°
2026-05-06 09:41 -38.09740 147.14311 25 ft 91 kts 279°
2026-05-06 09:41 -38.09668 147.13730 28 ft 46 kts 278°
2026-05-06 09:42 -38.09676 147.13503 24 ft 14 kts 212°
2026-05-06 09:42 -38.09762 147.13491 25 ft 3 kts 160°
2026-05-06 09:42 -38.09840 147.13467 26 ft 11 kts 178°
2026-05-06 09:42 -38.09864 147.13523 27 ft 11 kts 98°
2026-05-06 09:43 -38.09874 147.13610 26 ft 7 kts 108°
2026-05-06 09:43 -38.09897 147.13613 29 ft 2 kts 188°
2026-05-06 09:43 -38.09902 147.13612 28 ft 0 kts 189°